WA6MHA-11 Weather Reports


time (UTC)temp
C
wind
direction
speed
KPH
gust
KPH
rain 1hr
cm
rain 24hr
cm
rain mn
cm
humidity
%
barometer
mb
20260504041309 15 279 3.2 4.8 0.00 0.00 0.00 48 1015.8
20260504040506 15 240 0.0 3.2 0.00 0.00 0.00 47 1015.6
20260504040107 15 279 1.6 4.8 0.00 0.00 0.00 47 1015.5
20260504035304 15 299 3.2 4.8 0.00 0.00 0.00 47 1015.5
20260504034901 15 283 1.6 0.0 0.00 0.00 0.00 47 1015.5
20260504034058 15 283 4.8 4.8 0.00 0.00 0.00 46 1015.1
20260504033256 15 272 1.6 4.8 0.00 0.00 0.00 46 1015.3
20260504032856 15 288 4.8 6.4 0.00 0.00 0.00 45 1015.2
20260504031654 16 294 3.2 4.8 0.00 0.00 0.00 45 1014.9
20260504031249 16 290 3.2 6.4 0.00 0.00 0.00 45 1014.8
20260504030853 16 274 6.4 6.4 0.00 0.00 0.00 44 1014.9
20260504030447 16 232 3.2 8.0 0.00 0.00 0.00 44 1014.9
20260504024842 16 135 1.6 6.4 0.00 0.00 0.00 43 1014.7
20260504024042 16 90 3.2 4.8 0.00 0.00 0.00 43 1014.7
20260504023237 17 186 3.2 4.8 0.00 0.00 0.00 42 1014.5
20260504022436 17 173 3.2 3.2 0.00 0.00 0.00 41 1014.4
20260504021632 17 173 3.2 4.8 0.00 0.00 0.00 41 1014.4
20260504020434 17 144 1.6 6.4 0.00 0.00 0.00 40 1014.3
20260504020028 17 135 3.2 6.4 0.00 0.00 0.00 40 1014.2
20260504015631 17 177 6.4 6.4 0.00 0.00 0.00 39 1014.3
20260504015629 17 177 6.4 6.4 0.00 0.00 0.00 39 1014.3
20260504014824 17 135 8.0 12.9 0.00 0.00 0.00 39 1014.0
20260504014020 17 135 8.0 12.9 0.00 0.00 0.00 38 1014.1
20260504013622 18 150 6.4 11.3 0.00 0.00 0.00 37 1013.9
20260504013217 18 177 1.6 6.4 0.00 0.00 0.00 37 1014.0
20260504012820 18 187 6.4 6.4 0.00 0.00 0.00 37 1014.0
20260504012414 18 177 6.4 6.4 0.00 0.00 0.00 37 1014.2
20260504011614 18 130 8.0 9.7 0.00 0.00 0.00 36 1014.0
20260504011211 18 139 6.4 12.9 0.00 0.00 0.00 36 1013.9
20260504005605 19 139 8.0 11.3 0.00 0.00 0.00 35 1014.0
20260504005204 19 137 6.4 6.4 0.00 0.00 0.00 35 1013.9
20260504004803 19 162 3.2 9.7 0.00 0.00 0.00 34 1013.9
20260504004402 19 165 4.8 12.9 0.00 0.00 0.00 34 1013.8
20260504004005 19 159 6.4 12.9 0.00 0.00 0.00 34 1013.8
20260504003158 19 130 11.3 11.3 0.00 0.00 0.00 33 1013.8
20260504002757 20 135 11.3 11.3 0.00 0.00 0.00 33 1013.7
20260504002355 20 182 1.6 9.7 0.00 0.00 0.00 33 1013.8
20260504001553 20 135 9.7 9.7 0.00 0.00 0.00 33 1013.8
20260504000757 21 155 8.0 9.7 0.00 0.00 0.00 32 1013.7
20260504000353 21 143 3.2 12.9 0.00 0.00 0.00 32 1013.7
20260503235548 21 135 3.2 8.0 0.00 0.00 0.00 32 1013.7
20260503234346 22 192 1.6 9.7 0.00 0.00 0.00 32 1013.7
20260503233434 21 191 8.0 9.7 0.00 0.00 0.00 32 1013.7
20260503233313 21 191 8.0 9.7 0.00 0.00 0.00 32 1013.7
20260503233140 21 191 8.0 9.7 0.00 0.00 0.00 32 1013.7
20260503232742 21 146 1.6 8.0 0.00 0.00 0.00 33 1013.8
20260503232337 22 135 1.6 9.7 0.00 0.00 0.00 33 1013.8
20260503225929 21 137 12.9 14.5 0.00 0.00 0.00 33 1013.9
20260503225528 21 135 9.7 12.9 0.00 0.00 0.00 33 1014.0
20260503225141 22 139 14.5 16.1 0.00 0.00 0.00 33 1014.0
20260503223120 22 144 8.0 12.9 0.00 0.00 0.00 35 1014.2
20260503222317 22 213 3.2 4.8 0.00 0.00 0.00 35 1014.4
20260503221916 22 182 4.8 4.8 0.00 0.00 0.00 35 1014.4
20260503221557 21 157 1.6 11.3 0.00 0.00 0.00 35 1014.6
20260503221514 21 157 1.6 11.3 0.00 0.00 0.00 35 1014.6
20260503221112 21 186 11.3 11.3 0.00 0.00 0.00 36 1014.5
20260503220711 20 182 11.3 11.3 0.00 0.00 0.00 35 1014.5
20260503220310 21 177 1.6 9.7 0.00 0.00 0.00 36 1014.5
20260503215909 21 135 9.7 9.7 0.00 0.00 0.00 36 1014.7
20260503215107 21 250 4.8 6.4 0.00 0.00 0.00 36 1014.8
20260503214705 21 180 4.8 9.7 0.00 0.00 0.00 36 1014.8
20260503214305 20 199 3.2 8.0 0.00 0.00 0.00 36 1014.7
20260503213903 20 135 9.7 11.3 0.00 0.00 0.00 36 1014.8
20260503213501 20 202 8.0 9.7 0.00 0.00 0.00 36 1014.8
20260503213100 20 182 6.4 8.0 0.00 0.00 0.00 36 1014.8
20260503212659 20 90 1.6 8.0 0.00 0.00 0.00 36 1014.8
20260503212257 20 207 3.2 9.7 0.00 0.00 0.00 36 1014.8
20260503211856 20 277 4.8 6.4 0.00 0.00 0.00 36 1014.8
20260503211455 20 198 4.8 11.3 0.00 0.00 0.00 36 1014.9
20260503211054 20 147 1.6 14.5 0.00 0.00 0.00 37 1014.9
20260503210658 20 184 3.2 6.4 0.00 0.00 0.00 36 1014.9
20260503210251 20 90 1.6 8.0 0.00 0.00 0.00 36 1015.0
20260503205849 20 193 6.4 9.7 0.00 0.00 0.00 36 1014.9
20260503205448 20 186 9.7 9.7 0.00 0.00 0.00 37 1014.9
20260503205047 20 132 3.2 8.0 0.00 0.00 0.00 37 1014.9
20260503204646 20 168 4.8 8.0 0.00 0.00 0.00 37 1014.9
20260503204245 20 58 1.6 9.7 0.00 0.00 0.00 37 1014.9
20260503203442 21 90 0.0 8.0 0.00 0.00 0.00 38 1014.9
20260503203041 21 190 6.4 9.7 0.00 0.00 0.00 38 1014.8
20260503202641 20 160 1.6 8.0 0.00 0.00 0.00 38 1014.9
20260503201838 21 196 4.8 6.4 0.00 0.00 0.00 39 1014.9
20260503201440 20 191 4.8 11.3 0.00 0.00 0.00 39 1015.1
20260503201039 20 135 11.3 11.3 0.00 0.00 0.00 39 1015.0
20260503200633 20 177 3.2 8.0 0.00 0.00 0.00 39 1015.0
20260503200232 20 189 9.7 9.7 0.00 0.00 0.00 39 1015.1
20260503195833 20 186 1.6 8.0 0.00 0.00 0.00 39 1015.2
20260503195430 19 166 4.8 9.7 0.00 0.00 0.00 40 1015.1
20260503195029 19 132 4.8 9.7 0.00 0.00 0.00 40 1015.2
20260503194626 19 180 3.2 12.9 0.00 0.00 0.00 40 1015.2
20260503194226 19 77 1.6 8.0 0.00 0.00 0.00 40 1015.2
20260503193826 19 193 4.8 11.3 0.00 0.00 0.00 40 1015.2
20260503193026 18 123 12.9 14.5 0.00 0.00 0.00 41 1015.1
20260503192622 18 135 4.8 11.3 0.00 0.00 0.00 41 1015.2
20260503191817 18 132 6.4 8.0 0.00 0.00 0.00 41 1015.2
20260503191416 18 163 4.8 14.5 0.00 0.00 0.00 41 1015.2
20260503191015 18 114 1.6 11.3 0.00 0.00 0.00 42 1015.2
20260503190614 18 105 1.6 8.0 0.00 0.00 0.00 42 1015.3
20260503190214 18 123 6.4 14.5 0.00 0.00 0.00 42 1015.3
20260503185414 17 135 11.3 14.5 0.00 0.00 0.00 43 1015.4
20260503185009 18 135 12.9 16.1 0.00 0.00 0.00 43 1015.4
20260503184607 18 210 3.2 9.7 0.00 0.00 0.00 43 1015.3
20260503183805 18 135 9.7 12.9 0.00 0.00 0.00 45 1015.4
20260503183403 19 132 8.0 8.0 0.00 0.00 0.00 45 1015.4
20260503183002 19 191 0.0 8.0 0.00 0.00 0.00 46 1015.4
20260503181759 18 190 8.0 8.0 0.00 0.00 0.00 47 1015.6
20260503181359 17 215 0.0 11.3 0.00 0.00 0.00 48 1015.5
20260503181357 17 215 0.0 11.3 0.00 0.00 0.00 48 1015.5
20260503180955 18 135 4.8 4.8 0.00 0.00 0.00 48 1015.7
20260503180153 17 76 3.2 3.2 0.00 0.00 0.00 48 1015.8
20260503175752 16 40 0.0 1.6 0.00 0.00 0.00 49 1015.9
20260503174549 16 180 1.6 4.8 0.00 0.00 0.00 49 1016.0
20260503174147 16 202 4.8 4.8 0.00 0.00 0.00 50 1016.0
20260503173345 16 177 3.2 6.4 0.00 0.00 0.00 50 1016.0
20260503172543 16 281 6.4 9.7 0.00 0.00 0.00 51 1015.9
20260503171823 16 310 4.8 4.8 0.00 0.00 0.00 51 1015.8
20260503171742 16 310 4.8 4.8 0.00 0.00 0.00 51 1015.8
20260503171338 16 230 1.6 6.4 0.00 0.00 0.00 52 1015.8
20260503170939 16 225 4.8 4.8 0.00 0.00 0.00 52 1015.7
20260503170536 16 230 0.0 4.8 0.00 0.00 0.00 52 1015.7
20260503170135 15 252 3.2 4.8 0.00 0.00 0.00 53 1015.7
20260503160115 14 229 0.0 3.2 0.00 0.00 0.00 55 1015.2
20260503150458 14 163 1.6 4.8 0.00 0.00 0.00 55 1014.8
20260503130419 14 97 0.0 6.4 0.00 0.00 0.00 55 1013.6
20260503110744 14 175 3.2 3.2 0.00 0.00 0.00 55 1013.9
20260503110341 14 180 1.6 4.8 0.00 0.00 0.00 55 1013.9
20260503090301 14 191 1.6 1.6 0.00 0.00 0.00 56 1014.2
20260503081045 14 200 4.8 8.0 0.00 0.00 0.00 56 1014.4
20260503080643 14 173 6.4 9.7 0.00 0.00 0.00 56 1014.4
20260503072625 14 148 1.6 4.8 0.00 0.00 0.00 56 1014.1
20260503072226 14 153 1.6 6.4 0.00 0.00 0.00 56 1014.0
20260503071821 14 166 1.6 3.2 0.00 0.00 0.00 56 1014.0
20260503071420 14 168 3.2 6.4 0.00 0.00 0.00 56 1014.0
20260503071019 14 182 4.8 6.4 0.00 0.00 0.00 56 1013.8
20260503070618 14 186 4.8 11.3 0.00 0.00 0.00 56 1013.7
20260503070217 14 92 9.7 11.3 0.00 0.00 0.00 56 1013.8
20260503053749 14 147 0.0 6.4 0.00 0.00 0.00 56 1014.0
20260503053348 14 137 6.4 11.3 0.00 0.00 0.00 55 1014.0
20260503052947 14 127 8.0 11.3 0.00 0.00 0.00 55 1014.0
20260503052546 14 114 8.0 11.3 0.00 0.00 0.00 55 1013.9
20260503052145 14 135 9.7 11.3 0.00 0.00 0.00 55 1014.1
20260503051744 14 135 6.4 11.3 0.00 0.00 0.00 55 1014.1
20260503051342 14 135 9.7 11.3 0.00 0.00 0.00 55 1014.0
20260503050138 14 157 0.0 9.7 0.00 0.00 0.00 54 1014.0
20260503043731 14 123 6.4 9.7 0.00 0.00 0.00 53 1013.6
20260503042920 14 135 6.4 9.7 0.00 0.00 0.00 53 1013.5
20260503042519 14 123 6.4 9.7 0.00 0.00 0.00 52 1013.4
20260503042118 14 130 9.7 9.7 0.00 0.00 0.00 52 1013.4
20260503041721 14 135 8.0 11.3 0.00 0.00 0.00 52 1013.2